| time (UTC) | temp C | wind direction | speed KPH | gust KPH | rain 1hr cm | rain 24hr cm | rain mn cm | humidity % | barometer mb |
| 20260505194110 | 7 | 325 | 0.0 | 0.0 | 0.00 | 0.00 | 0.00 | 42 | 1009.2 |
| 20260505193607 | 8 | 335 | 1.6 | 1.6 | 0.00 | 0.00 | 0.00 | 41 | 1009.2 |
| 20260505193104 | 8 | 305 | 0.0 | 1.6 | 0.00 | 0.00 | 0.00 | 41 | 1009.3 |
| 20260505192603 | 8 | 321 | 1.6 | 1.6 | 0.00 | 0.00 | 0.00 | 40 | 1009.2 |
| 20260505192100 | 8 | 325 | 0.0 | 0.0 | 0.00 | 0.00 | 0.00 | 41 | 1009.2 |
| 20260505191558 | 8 | 323 | 0.0 | 1.6 | 0.00 | 0.00 | 0.00 | 41 | 1009.2 |
| 20260505191056 | 8 | 319 | 0.0 | 1.6 | 0.00 | 0.00 | 0.00 | 42 | 1009.3 |
| 20260505190550 | 7 | 320 | 0.0 | 1.6 | 0.00 | 0.00 | 0.00 | 43 | 1009.2 |
| 20260505190046 | 8 | 325 | 0.0 | 0.0 | 0.00 | 0.00 | 0.00 | 43 | 1009.1 |
| 20260505185543 | 8 | 335 | 0.0 | 0.0 | 0.00 | 0.00 | 0.00 | 41 | 1009.2 |
| 20260505185040 | 8 | 310 | 0.0 | 0.0 | 0.00 | 0.00 | 0.00 | 39 | 1009.0 |
| 20260505184537 | 8 | 322 | 1.6 | 1.6 | 0.00 | 0.00 | 0.00 | 39 | 1009.2 |
| 20260505184033 | 8 | 302 | 1.6 | 1.6 | 0.00 | 0.00 | 0.00 | 39 | 1009.0 |
| 20260505183530 | 9 | 322 | 0.0 | 0.0 | 0.00 | 0.00 | 0.00 | 38 | 1009.2 |
| 20260505183028 | 9 | 324 | 0.0 | 0.0 | 0.00 | 0.00 | 0.00 | 39 | 1009.1 |
| 20260505182524 | 9 | 332 | 1.6 | 1.6 | 0.00 | 0.00 | 0.00 | 38 | 1009.1 |
| 20260505182020 | 9 | 334 | 0.0 | 0.0 | 0.00 | 0.00 | 0.00 | 38 | 1009.0 |
| 20260505181517 | 10 | 323 | 1.6 | 1.6 | 0.00 | 0.00 | 0.00 | 37 | 1009.2 |
| 20260505181015 | 10 | 333 | 0.0 | 0.0 | 0.00 | 0.00 | 0.00 | 36 | 1009.0 |
| 20260505180510 | 10 | 341 | 3.2 | 3.2 | 0.00 | 0.00 | 0.00 | 35 | 1009.0 |
| 20260505180008 | 10 | 359 | 1.6 | 1.6 | 0.00 | 0.00 | 0.00 | 35 | 1008.8 |
| 20260505175502 | 10 | 19 | 4.8 | 8.0 | 0.00 | 0.00 | 0.00 | 34 | 1008.8 |
| 20260505174959 | 10 | 355 | 3.2 | 3.2 | 0.00 | 0.00 | 0.00 | 33 | 1008.7 |
| 20260505174451 | 11 | 31 | 3.2 | 3.2 | 0.00 | 0.00 | 0.00 | 32 | 1008.8 |
| 20260505173947 | 11 | 354 | 3.2 | 3.2 | 0.00 | 0.00 | 0.00 | 31 | 1008.7 |
| 20260505173444 | 11 | 313 | 3.2 | 4.8 | 0.00 | 0.00 | 0.00 | 30 | 1008.6 |
| 20260505172941 | 11 | 326 | 3.2 | 3.2 | 0.00 | 0.00 | 0.00 | 30 | 1008.5 |
| 20260505172439 | 11 | 343 | 1.6 | 3.2 | 0.00 | 0.00 | 0.00 | 29 | 1008.5 |
| 20260505171938 | 11 | 333 | 1.6 | 1.6 | 0.00 | 0.00 | 0.00 | 29 | 1008.4 |
| 20260505171436 | 11 | 323 | 3.2 | 3.2 | 0.00 | 0.00 | 0.00 | 28 | 1008.4 |
| 20260505170932 | 12 | 326 | 1.6 | 1.6 | 0.00 | 0.00 | 0.00 | 27 | 1008.3 |
| 20260505170429 | 12 | 356 | 4.8 | 4.8 | 0.00 | 0.00 | 0.00 | 26 | 1008.3 |
| 20260505165924 | 12 | 347 | 3.2 | 3.2 | 0.00 | 0.00 | 0.00 | 26 | 1008.4 |
| 20260505165420 | 12 | 335 | 1.6 | 3.2 | 0.00 | 0.00 | 0.00 | 25 | 1008.3 |
| 20260505164915 | 12 | 323 | 3.2 | 3.2 | 0.00 | 0.00 | 0.00 | 25 | 1008.4 |
| 20260505164407 | 12 | 341 | 3.2 | 4.8 | 0.00 | 0.00 | 0.00 | 24 | 1008.3 |
| 20260505163905 | 12 | 347 | 4.8 | 4.8 | 0.00 | 0.00 | 0.00 | 24 | 1008.1 |
| 20260505163404 | 13 | 20 | 3.2 | 4.8 | 0.00 | 0.00 | 0.00 | 23 | 1008.0 |
| 20260505162902 | 13 | 8 | 4.8 | 4.8 | 0.00 | 0.00 | 0.00 | 22 | 1008.1 |
| 20260505162357 | 13 | 347 | 3.2 | 3.2 | 0.00 | 0.00 | 0.00 | 22 | 1007.9 |
| 20260505161855 | 14 | 329 | 6.4 | 9.7 | 0.00 | 0.00 | 0.00 | 21 | 1008.0 |
| 20260505161351 | 15 | 340 | 3.2 | 3.2 | 0.00 | 0.00 | 0.00 | 22 | 1008.3 |
| 20260505160849 | 15 | 351 | 4.8 | 8.0 | 0.00 | 0.00 | 0.00 | 20 | 1007.7 |
| 20260505160347 | 15 | 10 | 1.6 | 3.2 | 0.00 | 0.00 | 0.00 | 21 | 1007.8 |
| 20260505153326 | 16 | 58 | 3.2 | 4.8 | 0.00 | 0.00 | 0.00 | 17 | 1007.7 |
| 20260505152823 | 16 | 71 | 4.8 | 8.0 | 0.00 | 0.00 | 0.00 | 16 | 1007.4 |
| 20260505152320 | 16 | 93 | 9.7 | 11.3 | 0.00 | 0.00 | 0.00 | 14 | 1007.7 |
| 20260505151820 | 17 | 42 | 11.3 | 16.1 | 0.00 | 0.00 | 0.00 | 13 | 1007.5 |
| 20260505151316 | 17 | 334 | 6.4 | 9.7 | 0.00 | 0.00 | 0.00 | 16 | 1007.4 |
| 20260505150813 | 17 | 135 | 6.4 | 11.3 | 0.00 | 0.00 | 0.00 | 16 | 1007.7 |
| 20260505150310 | 17 | 303 | 1.6 | 3.2 | 0.00 | 0.00 | 0.00 | 17 | 1007.5 |
| 20260505140235 | 17 | 6 | 11.3 | 16.1 | 0.00 | 0.00 | 0.00 | 14 | 1007.4 |
| 20260505130159 | 18 | 32 | 6.4 | 11.3 | 0.00 | 0.00 | 0.00 | 16 | 1007.5 |
| 20260505124649 | 17 | 63 | 8.0 | 12.9 | 0.00 | 0.00 | 0.00 | 15 | 1007.5 |
| 20260505124145 | 18 | 346 | 8.0 | 12.9 | 0.00 | 0.00 | 0.00 | 15 | 1007.8 |
| 20260505123641 | 17 | 318 | 6.4 | 9.7 | 0.00 | 0.00 | 0.00 | 15 | 1007.9 |
| 20260505123138 | 17 | 49 | 11.3 | 12.9 | 0.00 | 0.00 | 0.00 | 14 | 1008.0 |
| 20260505122635 | 18 | 293 | 8.0 | 14.5 | 0.00 | 0.00 | 0.00 | 13 | 1008.0 |
| 20260505122132 | 18 | 287 | 8.0 | 11.3 | 0.00 | 0.00 | 0.00 | 16 | 1008.0 |
| 20260505121629 | 18 | 318 | 3.2 | 3.2 | 0.00 | 0.00 | 0.00 | 17 | 1007.9 |
| 20260505121126 | 17 | 10 | 4.8 | 8.0 | 0.00 | 0.00 | 0.00 | 16 | 1008.3 |
| 20260505120621 | 17 | 345 | 8.0 | 9.7 | 0.00 | 0.00 | 0.00 | 15 | 1008.1 |
| 20260505120117 | 18 | 320 | 9.7 | 12.9 | 0.00 | 0.00 | 0.00 | 15 | 1008.3 |
| 20260505115612 | 17 | 322 | 4.8 | 4.8 | 0.00 | 0.00 | 0.00 | 16 | 1008.4 |
| 20260505115109 | 17 | 95 | 11.3 | 14.5 | 0.00 | 0.00 | 0.00 | 15 | 1008.3 |
| 20260505114601 | 17 | 359 | 9.7 | 14.5 | 0.00 | 0.00 | 0.00 | 16 | 1008.3 |
| 20260505114057 | 17 | 318 | 9.7 | 11.3 | 0.00 | 0.00 | 0.00 | 15 | 1008.5 |
| 20260505113553 | 17 | 329 | 3.2 | 4.8 | 0.00 | 0.00 | 0.00 | 17 | 1008.6 |
| 20260505113050 | 17 | 350 | 4.8 | 9.7 | 0.00 | 0.00 | 0.00 | 17 | 1008.7 |
| 20260505112546 | 17 | 20 | 4.8 | 4.8 | 0.00 | 0.00 | 0.00 | 19 | 1008.8 |
| 20260505112044 | 17 | 342 | 6.4 | 11.3 | 0.00 | 0.00 | 0.00 | 19 | 1008.7 |
| 20260505111538 | 17 | 307 | 12.9 | 16.1 | 0.00 | 0.00 | 0.00 | 20 | 1008.8 |
| 20260505111035 | 17 | 6 | 8.0 | 12.9 | 0.00 | 0.00 | 0.00 | 19 | 1008.8 |
| 20260505110531 | 17 | 358 | 6.4 | 9.7 | 0.00 | 0.00 | 0.00 | 20 | 1009.0 |
| 20260505102004 | 16 | 47 | 12.9 | 20.9 | 0.00 | 0.00 | 0.00 | 21 | 1009.3 |
| 20260505101501 | 16 | 303 | 8.0 | 11.3 | 0.00 | 0.00 | 0.00 | 20 | 1009.7 |
| 20260505100958 | 16 | 48 | 9.7 | 12.9 | 0.00 | 0.00 | 0.00 | 20 | 1009.5 |
| 20260505100455 | 17 | 314 | 11.3 | 16.1 | 0.00 | 0.00 | 0.00 | 21 | 1009.5 |
| 20260505095951 | 16 | 351 | 4.8 | 8.0 | 0.00 | 0.00 | 0.00 | 24 | 1009.5 |
| 20260505095448 | 15 | 21 | 4.8 | 9.7 | 0.00 | 0.00 | 0.00 | 22 | 1009.9 |
| 20260505094944 | 16 | 30 | 11.3 | 14.5 | 0.00 | 0.00 | 0.00 | 21 | 1009.8 |
| 20260505094441 | 15 | 342 | 6.4 | 9.7 | 0.00 | 0.00 | 0.00 | 22 | 1009.8 |
| 20260505093937 | 15 | 41 | 4.8 | 4.8 | 0.00 | 0.00 | 0.00 | 23 | 1009.9 |
| 20260505093434 | 15 | 359 | 6.4 | 9.7 | 0.00 | 0.00 | 0.00 | 22 | 1009.9 |
| 20260505092931 | 15 | 99 | 4.8 | 8.0 | 0.00 | 0.00 | 0.00 | 23 | 1010.1 |
| 20260505092429 | 15 | 24 | 8.0 | 12.9 | 0.00 | 0.00 | 0.00 | 24 | 1010.0 |
| 20260505091926 | 15 | 3 | 4.8 | 8.0 | 0.00 | 0.00 | 0.00 | 23 | 1010.0 |
| 20260505091423 | 15 | 6 | 8.0 | 11.3 | 0.00 | 0.00 | 0.00 | 23 | 1010.0 |
| 20260505090921 | 15 | 39 | 8.0 | 9.7 | 0.00 | 0.00 | 0.00 | 22 | 1010.1 |
| 20260505090419 | 15 | 28 | 6.4 | 9.7 | 0.00 | 0.00 | 0.00 | 25 | 1010.0 |
| 20260505085917 | 15 | 328 | 4.8 | 8.0 | 0.00 | 0.00 | 0.00 | 26 | 1010.1 |
| 20260505085414 | 15 | 9 | 8.0 | 11.3 | 0.00 | 0.00 | 0.00 | 26 | 1010.2 |
| 20260505084912 | 14 | 322 | 1.6 | 4.8 | 0.00 | 0.00 | 0.00 | 26 | 1010.2 |
| 20260505084410 | 14 | 342 | 3.2 | 4.8 | 0.00 | 0.00 | 0.00 | 27 | 1010.4 |
| 20260505083908 | 14 | 324 | 1.6 | 1.6 | 0.00 | 0.00 | 0.00 | 28 | 1010.4 |
| 20260505083405 | 13 | 353 | 4.8 | 4.8 | 0.00 | 0.00 | 0.00 | 29 | 1010.4 |
| 20260505082901 | 13 | 313 | 4.8 | 4.8 | 0.00 | 0.00 | 0.00 | 29 | 1010.4 |
| 20260505082357 | 13 | 341 | 6.4 | 9.7 | 0.00 | 0.00 | 0.00 | 28 | 1010.4 |
| 20260505081854 | 13 | 358 | 6.4 | 11.3 | 0.00 | 0.00 | 0.00 | 31 | 1010.1 |
| 20260505081351 | 13 | 359 | 6.4 | 8.0 | 0.00 | 0.00 | 0.00 | 32 | 1010.4 |
| 20260505080848 | 13 | 301 | 4.8 | 8.0 | 0.00 | 0.00 | 0.00 | 32 | 1010.2 |
| 20260505080344 | 13 | 357 | 4.8 | 8.0 | 0.00 | 0.00 | 0.00 | 32 | 1010.4 |
| 20260505075839 | 13 | 20 | 4.8 | 8.0 | 0.00 | 0.00 | 0.00 | 30 | 1010.0 |
| 20260505075337 | 13 | 75 | 8.0 | 11.3 | 0.00 | 0.00 | 0.00 | 28 | 1010.0 |
| 20260505074834 | 13 | 6 | 11.3 | 16.1 | 0.00 | 0.00 | 0.00 | 30 | 1010.1 |
| 20260505074331 | 13 | 59 | 6.4 | 11.3 | 0.00 | 0.00 | 0.00 | 29 | 1009.8 |
| 20260505073828 | 13 | 42 | 4.8 | 9.7 | 0.00 | 0.00 | 0.00 | 32 | 1009.9 |
| 20260505073326 | 13 | 3 | 4.8 | 4.8 | 0.00 | 0.00 | 0.00 | 33 | 1009.8 |
| 20260505072823 | 12 | 38 | 4.8 | 4.8 | 0.00 | 0.00 | 0.00 | 47 | 1009.7 |
| 20260505072319 | 12 | 7 | 4.8 | 8.0 | 0.00 | 0.00 | 0.00 | 51 | 1009.5 |
| 20260505071815 | 12 | 333 | 6.4 | 9.7 | 0.00 | 0.00 | 0.00 | 51 | 1009.3 |
| 20260505071312 | 12 | 36 | 3.2 | 3.2 | 0.00 | 0.00 | 0.00 | 51 | 1009.4 |
| 20260505070810 | 12 | 327 | 0.0 | 0.0 | 0.00 | 0.00 | 0.00 | 50 | 1009.2 |
| 20260505070306 | 12 | 335 | 1.6 | 3.2 | 0.00 | 0.00 | 0.00 | 47 | 1009.2 |
| 20260505065801 | 12 | 334 | 1.6 | 1.6 | 0.00 | 0.00 | 0.00 | 50 | 1009.2 |
| 20260505065258 | 11 | 325 | 1.6 | 3.2 | 0.00 | 0.00 | 0.00 | 56 | 1009.1 |
| 20260505064755 | 11 | 331 | 1.6 | 1.6 | 0.00 | 0.00 | 0.00 | 60 | 1009.2 |
| 20260505064252 | 11 | 326 | 0.0 | 0.0 | 0.00 | 0.00 | 0.00 | 61 | 1009.1 |
| 20260505063750 | 10 | 334 | 0.0 | 1.6 | 0.00 | 0.00 | 0.00 | 65 | 1009.2 |
| 20260505063246 | 10 | 314 | 0.0 | 1.6 | 0.00 | 0.00 | 0.00 | 67 | 1009.1 |
| 20260505062743 | 10 | 329 | 0.0 | 0.0 | 0.00 | 0.00 | 0.00 | 68 | 1008.8 |
| 20260505062240 | 10 | 323 | 0.0 | 0.0 | 0.00 | 0.00 | 0.00 | 69 | 1008.8 |
| 20260505061737 | 10 | 286 | 1.6 | 1.6 | 0.00 | 0.00 | 0.00 | 68 | 1008.7 |
| 20260505061235 | 10 | 325 | 0.0 | 0.0 | 0.00 | 0.00 | 0.00 | 70 | 1008.7 |
| 20260505060732 | 9 | 326 | 0.0 | 0.0 | 0.00 | 0.00 | 0.00 | 70 | 1008.8 |
| 20260505060229 | 8 | 324 | 0.0 | 0.0 | 0.00 | 0.00 | 0.00 | 71 | 1009.0 |
| 20260505055724 | 8 | 330 | 0.0 | 0.0 | 0.00 | 0.00 | 0.00 | 71 | 1008.7 |
| 20260505055221 | 8 | 326 | 0.0 | 0.0 | 0.00 | 0.00 | 0.00 | 73 | 1008.8 |
| 20260505054718 | 8 | 330 | 0.0 | 0.0 | 0.00 | 0.00 | 0.00 | 74 | 1008.7 |
| 20260505054216 | 7 | 328 | 0.0 | 0.0 | 0.00 | 0.00 | 0.00 | 75 | 1008.7 |
| 20260505053714 | 7 | 329 | 0.0 | 0.0 | 0.00 | 0.00 | 0.00 | 75 | 1008.6 |
| 20260505053210 | 7 | 323 | 0.0 | 0.0 | 0.00 | 0.00 | 0.00 | 75 | 1008.6 |
| 20260505052708 | 7 | 328 | 0.0 | 0.0 | 0.00 | 0.00 | 0.00 | 76 | 1008.4 |
| 20260505052204 | 7 | 326 | 0.0 | 0.0 | 0.00 | 0.00 | 0.00 | 76 | 1008.4 |
| 20260505051701 | 7 | 324 | 0.0 | 0.0 | 0.00 | 0.00 | 0.00 | 75 | 1008.4 |
| 20260505051159 | 7 | 327 | 0.0 | 0.0 | 0.00 | 0.00 | 0.00 | 75 | 1008.3 |
| 20260505050657 | 7 | 331 | 0.0 | 0.0 | 0.00 | 0.00 | 0.00 | 74 | 1008.4 |
| 20260505050155 | 7 | 324 | 0.0 | 0.0 | 0.00 | 0.00 | 0.00 | 74 | 1008.4 |
| 20260505041625 | 9 | 331 | 0.0 | 1.6 | 0.00 | 0.00 | 0.00 | 67 | 1007.9 |
| 20260505041122 | 8 | 321 | 0.0 | 1.6 | 0.00 | 0.00 | 0.00 | 68 | 1007.9 |
| 20260505040619 | 8 | 325 | 0.0 | 0.0 | 0.00 | 0.00 | 0.00 | 69 | 1007.9 |
| 20260505040116 | 8 | 324 | 0.0 | 1.6 | 0.00 | 0.00 | 0.00 | 69 | 1007.7 |
| 20260505035613 | 8 | 327 | 0.0 | 0.0 | 0.00 | 0.00 | 0.00 | 67 | 1007.8 |
| 20260505035109 | 9 | 328 | 0.0 | 0.0 | 0.00 | 0.00 | 0.00 | 66 | 1007.7 |
| 20260505034606 | 9 | 326 | 0.0 | 0.0 | 0.00 | 0.00 | 0.00 | 66 | 1007.8 |
| 20260505034103 | 9 | 325 | 0.0 | 0.0 | 0.00 | 0.00 | 0.00 | 66 | 1007.8 |
| 20260505033559 | 9 | 328 | 0.0 | 1.6 | 0.00 | 0.00 | 0.00 | 66 | 1007.8 |
| 20260505033058 | 9 | 325 | 0.0 | 0.0 | 0.00 | 0.00 | 0.00 | 66 | 1007.7 |
| 20260505032555 | 9 | 327 | 0.0 | 0.0 | 0.00 | 0.00 | 0.00 | 66 | 1007.7 |
| 20260505032051 | 9 | 327 | 0.0 | 0.0 | 0.00 | 0.00 | 0.00 | 65 | 1007.7 |
| 20260505031549 | 10 | 329 | 0.0 | 0.0 | 0.00 | 0.00 | 0.00 | 64 | 1007.5 |
| 20260505031045 | 10 | 328 | 0.0 | 0.0 | 0.00 | 0.00 | 0.00 | 63 | 1007.7 |
| 20260505030542 | 10 | 328 | 0.0 | 0.0 | 0.00 | 0.00 | 0.00 | 62 | 1007.7 |
| 20260505030038 | 10 | 331 | 1.6 | 1.6 | 0.00 | 0.00 | 0.00 | 61 | 1007.8 |
| 20260505025534 | 10 | 325 | 1.6 | 1.6 | 0.00 | 0.00 | 0.00 | 60 | 1007.7 |
| 20260505025033 | 10 | 320 | 1.6 | 1.6 | 0.00 | 0.00 | 0.00 | 60 | 1007.9 |
| 20260505024530 | 10 | 305 | 1.6 | 1.6 | 0.00 | 0.00 | 0.00 | 60 | 1008.0 |
| 20260505024027 | 10 | 330 | 0.0 | 0.0 | 0.00 | 0.00 | 0.00 | 60 | 1007.9 |
| 20260505023524 | 10 | 316 | 0.0 | 0.0 | 0.00 | 0.00 | 0.00 | 59 | 1008.0 |
| 20260505023021 | 10 | 335 | 0.0 | 0.0 | 0.00 | 0.00 | 0.00 | 59 | 1007.9 |
| 20260505022519 | 10 | 330 | 0.0 | 0.0 | 0.00 | 0.00 | 0.00 | 58 | 1008.1 |
| 20260505022016 | 11 | 329 | 0.0 | 0.0 | 0.00 | 0.00 | 0.00 | 57 | 1008.1 |
| 20260505021512 | 11 | 327 | 0.0 | 0.0 | 0.00 | 0.00 | 0.00 | 56 | 1008.0 |
| 20260505021009 | 11 | 324 | 1.6 | 1.6 | 0.00 | 0.00 | 0.00 | 55 | 1008.0 |
| 20260505020503 | 11 | 297 | 1.6 | 1.6 | 0.00 | 0.00 | 0.00 | 56 | 1008.3 |
| 20260505020000 | 11 | 325 | 0.0 | 0.0 | 0.00 | 0.00 | 0.00 | 54 | 1008.5 |
| 20260505015458 | 11 | 334 | 0.0 | 0.0 | 0.00 | 0.00 | 0.00 | 54 | 1008.3 |
| 20260505014954 | 11 | 328 | 1.6 | 3.2 | 0.00 | 0.00 | 0.00 | 54 | 1008.4 |
| 20260505014451 | 11 | 329 | 0.0 | 0.0 | 0.00 | 0.00 | 0.00 | 53 | 1008.5 |
| 20260505013949 | 11 | 329 | 0.0 | 0.0 | 0.00 | 0.00 | 0.00 | 53 | 1008.6 |
| 20260505013446 | 11 | 328 | 0.0 | 0.0 | 0.00 | 0.00 | 0.00 | 52 | 1008.5 |
| 20260505012943 | 12 | 271 | 3.2 | 3.2 | 0.00 | 0.00 | 0.00 | 51 | 1008.7 |
| 20260505012441 | 12 | 313 | 1.6 | 3.2 | 0.00 | 0.00 | 0.00 | 50 | 1008.8 |
| 20260505011937 | 12 | 279 | 3.2 | 3.2 | 0.00 | 0.00 | 0.00 | 49 | 1008.7 |
| 20260505011433 | 12 | 350 | 4.8 | 4.8 | 0.00 | 0.00 | 0.00 | 48 | 1009.0 |
| 20260505010930 | 12 | 273 | 1.6 | 1.6 | 0.00 | 0.00 | 0.00 | 48 | 1009.0 |
| 20260505010426 | 12 | 334 | 3.2 | 3.2 | 0.00 | 0.00 | 0.00 | 47 | 1009.0 |
| 20260505005922 | 12 | 344 | 1.6 | 1.6 | 0.00 | 0.00 | 0.00 | 47 | 1008.8 |
| 20260505005419 | 12 | 290 | 1.6 | 3.2 | 0.00 | 0.00 | 0.00 | 46 | 1009.1 |
| 20260505004917 | 12 | 310 | 1.6 | 1.6 | 0.00 | 0.00 | 0.00 | 47 | 1009.0 |
| 20260505004413 | 12 | 328 | 0.0 | 1.6 | 0.00 | 0.00 | 0.00 | 45 | 1008.8 |
| 20260505003910 | 12 | 325 | 0.0 | 0.0 | 0.00 | 0.00 | 0.00 | 43 | 1009.0 |
| 20260505003407 | 12 | 323 | 0.0 | 0.0 | 0.00 | 0.00 | 0.00 | 42 | 1009.2 |
| 20260505002904 | 12 | 322 | 0.0 | 1.6 | 0.00 | 0.00 | 0.00 | 43 | 1009.0 |
| 20260505002400 | 12 | 329 | 1.6 | 1.6 | 0.00 | 0.00 | 0.00 | 41 | 1009.1 |
| 20260505001859 | 11 | 327 | 1.6 | 1.6 | 0.00 | 0.00 | 0.00 | 43 | 1009.2 |
| 20260505001355 | 11 | 325 | 0.0 | 0.0 | 0.00 | 0.00 | 0.00 | 42 | 1009.2 |
| 20260505000853 | 11 | 325 | 0.0 | 1.6 | 0.00 | 0.00 | 0.00 | 44 | 1009.2 |
| 20260505000351 | 12 | 323 | 0.0 | 0.0 | 0.00 | 0.00 | 0.00 | 46 | 1009.2 |
| 20260504235846 | 12 | 270 | 0.0 | 1.6 | 0.00 | 0.00 | 0.00 | 38 | 1009.0 |
| 20260504235344 | 12 | 328 | 0.0 | 0.0 | 0.00 | 0.00 | 0.00 | 39 | 1009.1 |
| 20260504234840 | 12 | 329 | 0.0 | 0.0 | 0.00 | 0.00 | 0.00 | 39 | 1009.1 |
| 20260504234338 | 12 | 326 | 0.0 | 0.0 | 0.00 | 0.00 | 0.00 | 41 | 1009.2 |
| 20260504233835 | 12 | 325 | 0.0 | 0.0 | 0.00 | 0.00 | 0.00 | 40 | 1009.2 |
| 20260504233330 | 12 | 346 | 1.6 | 1.6 | 0.00 | 0.00 | 0.00 | 39 | 1009.1 |
| 20260504232827 | 12 | 326 | 0.0 | 0.0 | 0.00 | 0.00 | 0.00 | 40 | 1009.1 |
| 20260504232324 | 13 | 332 | 1.6 | 1.6 | 0.00 | 0.00 | 0.00 | 42 | 1009.0 |
| 20260504231821 | 13 | 306 | 1.6 | 1.6 | 0.00 | 0.00 | 0.00 | 37 | 1009.1 |
| 20260504231318 | 13 | 328 | 0.0 | 0.0 | 0.00 | 0.00 | 0.00 | 40 | 1009.2 |
| 20260504230814 | 13 | 321 | 0.0 | 0.0 | 0.00 | 0.00 | 0.00 | 34 | 1009.2 |
| 20260504230312 | 13 | 331 | 0.0 | 0.0 | 0.00 | 0.00 | 0.00 | 34 | 1009.2 |
| 20260504225810 | 13 | 321 | 1.6 | 1.6 | 0.00 | 0.00 | 0.00 | 36 | 1009.2 |
| 20260504225306 | 14 | 326 | 0.0 | 0.0 | 0.00 | 0.00 | 0.00 | 33 | 1009.2 |
| 20260504224804 | 14 | 324 | 1.6 | 1.6 | 0.00 | 0.00 | 0.00 | 32 | 1009.3 |
| 20260504224301 | 15 | 332 | 1.6 | 3.2 | 0.00 | 0.00 | 0.00 | 32 | 1009.2 |
| 20260504223757 | 15 | 327 | 1.6 | 3.2 | 0.00 | 0.00 | 0.00 | 32 | 1009.2 |
| 20260504223253 | 15 | 313 | 0.0 | 1.6 | 0.00 | 0.00 | 0.00 | 32 | 1009.1 |
| 20260504222750 | 15 | 324 | 1.6 | 1.6 | 0.00 | 0.00 | 0.00 | 31 | 1009.3 |
| 20260504222246 | 15 | 322 | 0.0 | 1.6 | 0.00 | 0.00 | 0.00 | 31 | 1009.3 |
| 20260504221744 | 15 | 359 | 1.6 | 1.6 | 0.00 | 0.00 | 0.00 | 31 | 1009.3 |
| 20260504221241 | 15 | 305 | 1.6 | 1.6 | 0.00 | 0.00 | 0.00 | 31 | 1009.4 |
| 20260504220738 | 15 | 326 | 0.0 | 1.6 | 0.00 | 0.00 | 0.00 | 32 | 1009.4 |
| 20260504220235 | 15 | 333 | 0.0 | 0.0 | 0.00 | 0.00 | 0.00 | 30 | 1009.5 |
| 20260504215732 | 15 | 321 | 1.6 | 1.6 | 0.00 | 0.00 | 0.00 | 31 | 1009.3 |
| 20260504215229 | 15 | 325 | 0.0 | 1.6 | 0.00 | 0.00 | 0.00 | 28 | 1009.5 |
| 20260504214724 | 15 | 325 | 0.0 | 0.0 | 0.00 | 0.00 | 0.00 | 29 | 1009.8 |
| 20260504214216 | 15 | 328 | 0.0 | 1.6 | 0.00 | 0.00 | 0.00 | 29 | 1009.5 |
| 20260504213712 | 15 | 328 | 0.0 | 0.0 | 0.00 | 0.00 | 0.00 | 32 | 1009.8 |
| 20260504213209 | 16 | 312 | 1.6 | 3.2 | 0.00 | 0.00 | 0.00 | 25 | 1009.7 |
| 20260504212706 | 16 | 323 | 0.0 | 1.6 | 0.00 | 0.00 | 0.00 | 26 | 1009.7 |
| 20260504212203 | 15 | 323 | 0.0 | 1.6 | 0.00 | 0.00 | 0.00 | 28 | 1009.9 |
| 20260504211700 | 16 | 311 | 1.6 | 1.6 | 0.00 | 0.00 | 0.00 | 26 | 1009.8 |
| 20260504211156 | 16 | 332 | 0.0 | 1.6 | 0.00 | 0.00 | 0.00 | 25 | 1009.7 |
| 20260504210654 | 16 | 323 | 0.0 | 0.0 | 0.00 | 0.00 | 0.00 | 27 | 1009.9 |
| 20260504210150 | 16 | 313 | 0.0 | 1.6 | 0.00 | 0.00 | 0.00 | 25 | 1009.8 |
| 20260504205648 | 16 | 323 | 0.0 | 0.0 | 0.00 | 0.00 | 0.00 | 24 | 1009.9 |
| 20260504205144 | 16 | 324 | 0.0 | 1.6 | 0.00 | 0.00 | 0.00 | 25 | 1009.9 |
| 20260504204643 | 16 | 275 | 1.6 | 1.6 | 0.00 | 0.00 | 0.00 | 23 | 1010.1 |
| 20260504204142 | 16 | 320 | 1.6 | 3.2 | 0.00 | 0.00 | 0.00 | 24 | 1009.9 |
| 20260504203640 | 16 | 330 | 0.0 | 1.6 | 0.00 | 0.00 | 0.00 | 26 | 1010.0 |
| 20260504203137 | 16 | 338 | 0.0 | 0.0 | 0.00 | 0.00 | 0.00 | 24 | 1010.0 |
| 20260504202632 | 17 | 307 | 1.6 | 1.6 | 0.00 | 0.00 | 0.00 | 24 | 1010.2 |
| 20260504202129 | 17 | 295 | 3.2 | 3.2 | 0.00 | 0.00 | 0.00 | 23 | 1010.0 |
| 20260504201625 | 17 | 329 | 1.6 | 1.6 | 0.00 | 0.00 | 0.00 | 24 | 1010.1 |
| 20260504201124 | 17 | 312 | 1.6 | 1.6 | 0.00 | 0.00 | 0.00 | 24 | 1009.9 |
| 20260504200620 | 17 | 324 | 1.6 | 3.2 | 0.00 | 0.00 | 0.00 | 24 | 1010.1 |
| 20260504200117 | 17 | 325 | 1.6 | 3.2 | 0.00 | 0.00 | 0.00 | 24 | 1010.2 |
| 20260504195613 | 17 | 322 | 1.6 | 1.6 | 0.00 | 0.00 | 0.00 | 24 | 1010.2 |
| 20260504195109 | 17 | 281 | 3.2 | 3.2 | 0.00 | 0.00 | 0.00 | 24 | 1010.1 |
| 20260504194606 | 17 | 275 | 3.2 | 3.2 | 0.00 | 0.00 | 0.00 | 25 | 1010.1 |